Location: Newark
(43.6583°N, 1.6617°E)
Time: 19:33:21
(UTC+00:00)

Vanguard 2 Rocket - Pass Details

Date: 24 August 2019
Orbit: 554 x 3326 km, 32.9° (Epoch: 22 September)

Event Time Altitude Azimuth Distance (km) Brightness Sun altitude
Exits shadow 02:06:46 35° 183° (S) 3,070 9.1 -27.5°
Maximum altitude 02:10:31 41° 151° (SSE) 3,139 9.3 -27.1°
Drops below altitude 10° 02:26:16 10° 91° (E) 6,029 11.6 -25.3°
Sets 02:31:50 0° 85° (E) 7,238 12.2 -24.7°
